When you browse on this site, cookies collect data to enhance your experience and personalize the content and advertising you see.
Visit our Privacy Policy to learn more. By continuing to use the site, you agree to this use of cookies and data.
  • In Latvia
  • List of Countries
  • For 7 days
  • Water Temperature
  • Weather Map
  • Weather Widgets
  • user-avatar
    Login

    Hourly Weather Alekseevka

    Today, 21 October, Monday

    Time Temperature Precipitation Wind Pressure Humidity
    00:00 +7°C° 0 mm 2 mps 757 mmHg 77%
    01:00 +7°C° 0 mm 2 mps 757 mmHg 79%
    02:00 +7°C° 0 mm 2 mps 757 mmHg 81%
    03:00 +6°C° 0 mm 2 mps 757 mmHg 81%
    04:00 +7°C° 0 mm 2 mps 757 mmHg 81%
    05:00 +7°C° 0 mm 2 mps 757 mmHg 81%
    06:00 +7°C° 0 mm 2 mps 757 mmHg 81%
    07:00 +8°C° 0 mm 3 mps 757 mmHg 80%
    08:00 +9°C° 0 mm 3 mps 757 mmHg 78%
    09:00 +8°C° 0 mm 4 mps 757 mmHg 76%
    10:00 +11°C° 0 mm 4 mps 757 mmHg 72%
    11:00 +12°C° 0 mm 4 mps 757 mmHg 69%
    12:00 +13°C° 0 mm 5 mps 756 mmHg 65%
    13:00 +14°C° 0 mm 5 mps 756 mmHg 63%
    14:00 +14°C° 0 mm 5 mps 756 mmHg 62%
    15:00 +15°C° 0 mm 5 mps 756 mmHg 61%
    16:00 +14°C° 0 mm 5 mps 755 mmHg 66%
    17:00 +12°C° 0 mm 4 mps 755 mmHg 71%
    18:00 +11°C° 0 mm 4 mps 754 mmHg 75%
    19:00 +11°C° 0 mm 4 mps 754 mmHg 76%
    20:00 +11°C° 0 mm 4 mps 754 mmHg 77%
    21:00 +10°C° 0 mm 4 mps 753 mmHg 78%
    22:00 +10°C° 0 mm 4 mps 753 mmHg 78%
    23:00 +10°C° 0 mm 4 mps 753 mmHg 78%

    Tomorrow, 22 October, Tuesday

    Time Temperature Precipitation Wind Pressure Humidity
    00:00 +10°C° 0 mm 4 mps 752 mmHg 79%
    01:00 +10°C° 0 mm 4 mps 752 mmHg 80%
    02:00 +10°C° 0 mm 4 mps 752 mmHg 81%
    03:00 +10°C° 0 mm 4 mps 752 mmHg 82%
    04:00 +10°C° 0 mm 4 mps 751 mmHg 84%
    05:00 +10°C° 0 mm 4 mps 751 mmHg 86%
    06:00 +10°C° 0 mm 4 mps 751 mmHg 88%
    07:00 +10°C° 0.2 mm 3 mps 751 mmHg 88%
    08:00 +10°C° 0.2 mm 3 mps 751 mmHg 89%
    09:00 +11°C° 0.2 mm 3 mps 751 mmHg 89%
    10:00 +11°C° 0.4 mm 3 mps 752 mmHg 90%
    11:00 +11°C° 0.4 mm 3 mps 752 mmHg 90%
    12:00 +12°C° 0.4 mm 2 mps 752 mmHg 91%
    13:00 +13°C° 0 mm 2 mps 752 mmHg 88%
    14:00 +13°C° 0 mm 2 mps 752 mmHg 85%
    15:00 +14°C° 0 mm 2 mps 752 mmHg 82%
    16:00 +13°C° 0 mm 2 mps 752 mmHg 82%
    17:00 +13°C° 0 mm 2 mps 752 mmHg 82%
    18:00 +12°C° 0 mm 2 mps 752 mmHg 83%
    19:00 +10°C° 0 mm 2 mps 753 mmHg 84%
    20:00 +10°C° 0 mm 2 mps 753 mmHg 85%
    21:00 +9°C° 0 mm 2 mps 753 mmHg 87%
    22:00 +10°C° 0 mm 1 mps 753 mmHg 88%
    23:00 +9°C° 0 mm 1 mps 753 mmHg 89%

    Day after tomorrow, 23 October, Wednesday

    Time Temperature Precipitation Wind Pressure Humidity
    00:00 +9°C° 0 mm 1 mps 753 mmHg 90%
    01:00 +8°C° 0 mm 1 mps 753 mmHg 90%
    02:00 +8°C° 0 mm 1 mps 753 mmHg 91%
    03:00 +8°C° 0 mm 1 mps 753 mmHg 91%
    04:00 +8°C° 0 mm 1 mps 753 mmHg 91%
    05:00 +8°C° 0 mm 1 mps 753 mmHg 92%
    06:00 +7°C° 0 mm 1 mps 752 mmHg 92%
    07:00 +8°C° 0 mm 1 mps 752 mmHg 88%
    08:00 +8°C° 0 mm 2 mps 752 mmHg 85%
    09:00 +10°C° 0 mm 2 mps 753 mmHg 81%
    10:00 +11°C° 0 mm 3 mps 752 mmHg 76%
    11:00 +12°C° 0 mm 3 mps 752 mmHg 71%
    12:00 +14°C° 0 mm 4 mps 752 mmHg 66%
    13:00 +14°C° 0 mm 4 mps 752 mmHg 65%
    14:00 +14°C° 0 mm 4 mps 751 mmHg 65%
    15:00 +14°C° 0 mm 5 mps 751 mmHg 64%
    16:00 +13°C° 0 mm 4 mps 751 mmHg 70%
    17:00 +12°C° 0 mm 4 mps 751 mmHg 76%
    18:00 +11°C° 0 mm 4 mps 750 mmHg 81%
    19:00 +11°C° 0 mm 4 mps 750 mmHg 83%
    20:00 +11°C° 0 mm 4 mps 750 mmHg 85%
    21:00 +11°C° 0 mm 4 mps 750 mmHg 86%
    22:00 +11°C° 0 mm 3 mps 750 mmHg 88%
    23:00 +11°C° 0 mm 3 mps 750 mmHg 90%

    24 October, Thursday

    Time Temperature Precipitation Wind Pressure Humidity
    00:00 +10°C° 0 mm 3 mps 750 mmHg 92%
    01:00 +10°C° 0 mm 3 mps 750 mmHg 92%
    02:00 +10°C° 0 mm 2 mps 751 mmHg 93%
    03:00 +10°C° 0 mm 2 mps 751 mmHg 93%
    04:00 +10°C° 0 mm 2 mps 751 mmHg 93%
    05:00 +9°C° 0 mm 2 mps 751 mmHg 94%
    06:00 +10°C° 0 mm 1 mps 751 mmHg 94%
    07:00 +10°C° 0 mm 2 mps 751 mmHg 91%
    08:00 +12°C° 0 mm 2 mps 751 mmHg 87%
    09:00 +13°C° 0 mm 2 mps 751 mmHg 84%
    10:00 +14°C° 0 mm 2 mps 751 mmHg 79%
    11:00 +16°C° 0 mm 2 mps 751 mmHg 73%
    12:00 +17°C° 0 mm 2 mps 751 mmHg 68%
    13:00 +17°C° 0 mm 2 mps 751 mmHg 67%
    14:00 +18°C° 0 mm 2 mps 751 mmHg 66%
    15:00 +18°C° 0 mm 2 mps 751 mmHg 65%
    16:00 +18°C° 0 mm 1 mps 751 mmHg 71%
    17:00 +15°C° 0 mm 1 mps 751 mmHg 77%
    18:00 +13°C° 0 mm 0 mps 750 mmHg 82%
    19:00 +13°C° 0 mm 0 mps 750 mmHg 83%
    20:00 +14°C° 0 mm 1 mps 751 mmHg 83%
    21:00 +14°C° 0 mm 1 mps 751 mmHg 83%
    22:00 +14°C° 0.1 mm 2 mps 750 mmHg 84%
    23:00 +13°C° 0.1 mm 2 mps 750 mmHg 85%

    25 October, Friday

    Time Temperature Precipitation Wind Pressure Humidity
    00:00 +13°C° 0.1 mm 2 mps 750 mmHg 86%
    01:00 +13°C° 0.1 mm 2 mps 750 mmHg 88%
    02:00 +12°C° 0.1 mm 2 mps 750 mmHg 90%
    03:00 +12°C° 0.1 mm 2 mps 750 mmHg 92%
    04:00 +12°C° 0 mm 2 mps 750 mmHg 93%
    05:00 +12°C° 0 mm 2 mps 750 mmHg 94%
    06:00 +10°C° 0 mm 2 mps 750 mmHg 95%
    07:00 +11°C° 0 mm 3 mps 751 mmHg 91%
    08:00 +11°C° 0 mm 3 mps 751 mmHg 87%
    09:00 +12°C° 0 mm 3 mps 752 mmHg 83%
    10:00 +13°C° 0 mm 3 mps 752 mmHg 76%
    11:00 +13°C° 0 mm 3 mps 752 mmHg 69%
    12:00 +14°C° 0 mm 3 mps 752 mmHg 62%
    13:00 +14°C° 0 mm 3 mps 752 mmHg 61%
    14:00 +14°C° 0 mm 3 mps 752 mmHg 59%
    15:00 +14°C° 0 mm 3 mps 752 mmHg 58%
    16:00 +14°C° 0 mm 2 mps 752 mmHg 63%
    17:00 +13°C° 0 mm 2 mps 753 mmHg 69%
    18:00 +10°C° 0 mm 2 mps 753 mmHg 74%
    19:00 +10°C° 0 mm 2 mps 753 mmHg 76%
    20:00 +9°C° 0 mm 2 mps 753 mmHg 78%
    21:00 +10°C° 0 mm 1 mps 753 mmHg 80%
    22:00 +10°C° 0 mm 1 mps 753 mmHg 82%
    23:00 +9°C° 0 mm 1 mps 754 mmHg 83%

    26 October, Saturday

    Time Temperature Precipitation Wind Pressure Humidity
    00:00 +9°C° 0 mm 1 mps 754 mmHg 85%
    01:00 +9°C° 0 mm 1 mps 754 mmHg 86%
    02:00 +8°C° 0 mm 1 mps 754 mmHg 86%
    03:00 +8°C° 0 mm 1 mps 754 mmHg 87%
    04:00 +8°C° 0 mm 1 mps 753 mmHg 87%
    05:00 +8°C° 0 mm 1 mps 753 mmHg 88%
    06:00 +7°C° 0 mm 1 mps 753 mmHg 88%
    07:00 +7°C° 0 mm 2 mps 753 mmHg 83%
    08:00 +8°C° 0 mm 2 mps 753 mmHg 79%
    09:00 +9°C° 0 mm 3 mps 753 mmHg 74%
    10:00 +11°C° 0 mm 4 mps 753 mmHg 70%
    11:00 +12°C° 0 mm 4 mps 752 mmHg 65%
    12:00 +14°C° 0 mm 5 mps 752 mmHg 61%
    13:00 +14°C° 0 mm 5 mps 752 mmHg 61%
    14:00 +14°C° 0 mm 5 mps 751 mmHg 61%
    15:00 +14°C° 0 mm 6 mps 750 mmHg 61%
    16:00 +13°C° 0 mm 5 mps 750 mmHg 66%
    17:00 +12°C° 0 mm 5 mps 750 mmHg 72%
    18:00 +10°C° 0 mm 5 mps 750 mmHg 77%
    19:00 +10°C° 0 mm 5 mps 750 mmHg 78%
    20:00 +10°C° 0 mm 5 mps 750 mmHg 78%
    21:00 +10°C° 0 mm 5 mps 750 mmHg 79%
    22:00 +10°C° 0 mm 5 mps 750 mmHg 81%
    23:00 +9°C° 0 mm 5 mps 750 mmHg 83%

    27 October, Sunday

    Time Temperature Precipitation Wind Pressure Humidity
    00:00 +10°C° 0 mm 4 mps 750 mmHg 85%
    01:00 +10°C° 0 mm 4 mps 750 mmHg 85%
    02:00 +10°C° 0 mm 3 mps 750 mmHg 85%
    03:00 +10°C° 0 mm 3 mps 750 mmHg 85%
    04:00 +9°C° 0 mm 3 mps 750 mmHg 87%
    05:00 +9°C° 0 mm 2 mps 751 mmHg 89%
    06:00 +8°C° 0 mm 2 mps 751 mmHg 91%
    07:00 +9°C° 0 mm 2 mps 751 mmHg 87%
    08:00 +9°C° 0 mm 2 mps 751 mmHg 83%
    09:00 +10°C° 0 mm 3 mps 751 mmHg 79%
    10:00 +11°C° 0 mm 3 mps 751 mmHg 74%
    11:00 +12°C° 0 mm 3 mps 751 mmHg 68%
    12:00 +13°C° 0 mm 3 mps 751 mmHg 62%
    13:00 +14°C° 0 mm 3 mps 750 mmHg 61%
    14:00 +14°C° 0 mm 3 mps 750 mmHg 60%
    15:00 +14°C° 0 mm 4 mps 749 mmHg 59%
    16:00 +13°C° 0 mm 4 mps 749 mmHg 65%
    17:00 +12°C° 0 mm 4 mps 749 mmHg 72%
    18:00 +11°C° 0 mm 3 mps 748 mmHg 79%
    19:00 +10°C° 0 mm 3 mps 748 mmHg 83%
    20:00 +10°C° 0 mm 3 mps 748 mmHg 88%
    21:00 +9°C° 0 mm 3 mps 748 mmHg 93%
    22:00 +8°C° 0 mm 4 mps 747 mmHg 92%
    23:00 +10°C° 0 mm 4 mps 747 mmHg 91%
    Show more